Location: Quebec
(46.8000°N, 71.2500°W)
Time: 05:32:02
(UTC-05:00)

Envisat - Pass Details

Date: 14 October 2017
Orbit: 764 x 766 km, 98.2° (Epoch: 11 December)

Event Time Altitude Azimuth Distance (km) Brightness Sun altitude
Exits shadow 22:00:14 15° 274° (W) 2,006 5.6 -40.1°
Drops below altitude 10° 22:02:54 10° 305° (NW) 2,313 6.1 -40.5°
Sets 22:06:19 0° 330° (NNW) 3,246 7.0 -40.9°
